Jackson, MI

7:10 AM EDT on October 14, 2019 (GMT -0400)
Jackson County-Reynolds

Weather History for KJXN - August, 2019

Change the Weather History Date:

Thursday, August 1, 2019

  Actual Average Record
Temperature  
Mean Temperature 67 °F 71 °F  
Max Temperature 79 °F 81 °F 96 °F (1988)
Min Temperature 55 °F 60 °F 46 °F (1990)
Degree Days  
Heating Degree Days 0 0  
Month to date heating degree days 0 0  
Since 1 June heating degree days 58 66  
Since 1 July heating degree days 0 11  
Cooling Degree Days 2 6  
Month to date cooling degree days 2 6  
Year to date cooling degree days 407 371  
Since 1 June cooling degree days 397 334  
Growing Degree Days 17 (Base 50)    
Moisture  
Dew Point 54 °F    
Average Humidity 70    
Maximum Humidity 100    
Minimum Humidity 39    
Precipitation  
Precipitation 0.00 in 0.12 in 0.89 in (2003)
Month to date precipitation 0.00 0.12  
Year to date precipitation 20.19 17.57  
Sea Level Pressure  
Sea Level Pressure 30.18 in    
Wind  
Wind Speed 4 mph (NNE)    
Max Wind Speed 10 mph    
Max Gust Speed 17 mph    
Visibility 10 miles    
Events      
T = Trace of Precipitation, MM = Missing Value Source: NWS Daily Summary

Daily Weather History Graph

Daily Weather History Graph

Search for Another Location

Airport or City:

Astronomy

Aug. 01, 2019 Rise Set
Actual Time 6:30 AM EDT 8:57 PM EDT
Civil Twilight 5:58 AM EDT 9:28 PM EDT
Nautical Twilight 5:19 AM EDT 10:08 PM EDT
Astronomical Twilight 4:34 AM EDT 10:52 PM EDT
Moon 6:53 AM EDT (8/1) 9:43 PM EDT (8/1)
Length of Visible Light 15h 30m
Length of Day
14h 26m
New Moon, 0% of the Moon is Illuminated
Aug 1
New Moon
Aug 7
First Quarter
Aug 15
Full
Aug 23
Last Quarter
Aug 30
New

Hourly Weather History & Observations

Time (EDT) Temp. Dew Point Humidity Pressure Visibility Wind Dir Wind Speed Gust Speed Precip Events Conditions
12:56 AM 62.1 °F 55.9 °F 80% 30.17 in 10.0 mi NNE 3.5 mph - N/A   Mostly Cloudy
1:56 AM 60.1 °F 54.0 °F 80% 30.17 in 10.0 mi NE 3.5 mph - N/A   Clear
2:56 AM 59.0 °F 55.0 °F 87% 30.17 in 10.0 mi NE 3.5 mph - N/A   Partly Cloudy
3:56 AM 60.1 °F 55.9 °F 86% 30.17 in 10.0 mi Calm Calm - N/A   Clear
4:56 AM 57.0 °F 55.9 °F 96% 30.17 in 10.0 mi Calm Calm - N/A   Clear
5:56 AM 55.9 °F 55.0 °F 97% 30.17 in 10.0 mi Calm Calm - N/A   Clear
6:56 AM 57.0 °F 55.9 °F 96% 30.18 in 10.0 mi Calm Calm - N/A   Partly Cloudy
7:56 AM 60.1 °F 57.9 °F 93% 30.20 in 10.0 mi NE 3.5 mph - N/A   Clear
8:56 AM 64.0 °F 55.9 °F 75% 30.21 in 10.0 mi NE 8.1 mph - N/A   Clear
9:56 AM 68.0 °F 54.0 °F 61% 30.21 in 10.0 mi NE 6.9 mph - N/A   Clear
10:56 AM 71.1 °F 53.1 °F 53% 30.22 in 10.0 mi NE 6.9 mph - N/A   Clear
11:56 AM 73.9 °F 55.0 °F 52% 30.22 in 10.0 mi North 8.1 mph - N/A   Clear
12:56 PM 75.0 °F 54.0 °F 48% 30.21 in 10.0 mi NNE 6.9 mph - N/A   Clear
1:56 PM 77.0 °F 54.0 °F 45% 30.21 in 10.0 mi NNE 5.8 mph - N/A   Clear
2:56 PM 79.0 °F 52.0 °F 39% 30.19 in 10.0 mi NE 8.1 mph - N/A   Clear
3:56 PM 78.1 °F 51.1 °F 39% 30.18 in 10.0 mi Variable 5.8 mph - N/A   Clear
4:56 PM 79.0 °F 51.1 °F 38% 30.17 in 10.0 mi North 6.9 mph - N/A   Clear
5:56 PM 79.0 °F 52.0 °F 39% 30.15 in 10.0 mi North 6.9 mph - N/A   Clear
6:56 PM 78.1 °F 51.1 °F 39% 30.15 in 10.0 mi NNE 4.6 mph - N/A   Clear
7:56 PM 75.9 °F 51.1 °F 42% 30.15 in 10.0 mi NNE 5.8 mph - N/A   Clear
8:56 PM 71.1 °F 53.1 °F 53% 30.16 in 10.0 mi NE 3.5 mph - N/A   Clear
9:56 PM 63.0 °F 55.9 °F 78% 30.17 in 10.0 mi Calm Calm - N/A   Clear
10:56 PM 60.1 °F 55.9 °F 86% 30.17 in 10.0 mi Calm Calm - N/A   Clear
11:56 PM 63.0 °F 54.0 °F 72% 30.17 in 10.0 mi Calm Calm - N/A   Clear